Regional Weather Roundup
Issued by NWS

Home | Current Version | Previous Version | Graphics & Text | Print | Product List | Glossary On
Versions: 1 2 3 4 5 6 7 8 9 10 11 12 13 14 15 16 17 18 19 20 21 22 23 24 25 26 27 28 29 30 31 32 33 34 35 36 37 38 39 40 41 42 43 44 45 46 47 48 49 50
000
ASUS43 KDTX 291101
RWRMI
MICHIGAN HOURLY REGIONAL WEATHER ROUNDUP
NATIONAL WEATHER SERVICE DETROIT/PONTIAC MI
700 AM EDT SUN MAR 29 2015

NOTE: "FAIR" INDICATES FEW OR NO CLOUDS BELOW 12,000 FEET WITH NO
SIGNIFICANT WEATHER AND/OR OBSTRUCTION TO VISIBILITY.

MIZ047>049-052>055-059>063-066>070-074>076-081>083-291200-
SOUTHEAST LOWER MICHIGAN

CITY           SKY/WX    TMP DP  RH WIND       PRES   REMARKS
ADRIAN         CLEAR     21  15  78 SW7       30.27R WCI  12
ALMA           CLEAR     21  13  72 S5        30.19F WCI  15
ANN ARBOR      CLEAR     14  12  92 SW3       30.25S
BAD AXE        CLEAR     24  11  57 SW8       30.20S WCI  15
CARO           CLEAR     20  11  67 SW3       30.20S
DETROIT CITY   CLEAR     25  12  58 S5        30.25F WCI  19
DETROIT        PTCLDY    21  14  74 S7        30.27S WCI  12
FLINT          CLEAR     24  11  57 S6        30.22F WCI  17
GROSSE ILE     CLEAR     25  16  68 SW7       30.25F WCI  17
HILLSDALE      CLEAR     22  13  67 S7        30.22F WCI  13
HOWELL         CLEAR     22  12  65 S7        30.21F WCI  13

CITY           SKY/WX    TMP DP  RH WIND       PRES   REMARKS
JACKSON        CLEAR     22  12  65 S7        30.22F WCI  13
LAMBERTVILLE   FAIR      27  16  63 S5        30.27F WCI  21
LANSING        CLEAR     23  12  62 S8        30.21F WCI  14
LAPEER         FAIR      20  12  70 CALM      30.22S
MASON          CLEAR     22  13  68 S5        30.21F WCI  16
MONROE         CLEAR     21  16  79 SW5       30.25F WCI  15
MT. CLEMENS    CLEAR     22  14  71 SW6       30.22S WCI  15
PONTIAC        CLEAR     17  11  77 CALM      30.22S
PORT HOPE        N/A     25  11  55 S5        30.17F WCI  19
PORT HURON     CLEAR     18  16  93 S3        30.24F
TRI CITIES     CLEAR     23  12  62 SW7       30.20S WCI  15
TROY           CLEAR     23  12  63 CALM      30.26S
SAGINAW HB     CLEAR     25  14  63 S10       30.19F WCI  15
$$
MIZ043>046-050>051-056>058-064>065-071>073-077>080-291200-
SOUTHWEST LOWER MICHIGAN

CITY           SKY/WX    TMP DP  RH WIND       PRES   REMARKS
BATTLE CREEK   CLEAR     24  14  65 S9        30.21S WCI  14
BENTON HARBOR  MOCLDY    26  16  65 S10       30.19F WCI  16
BIG RAPIDS     PTCLDY    21   8  56 SE5       30.12F WCI  14
COLDWATER      CLEAR     25  13  62 S6        30.22F WCI  18
FREMONT        FAIR      25  11  53 S9G16     30.13F WCI  16
HOLLAND        PTCLDY    25  14  63 S9        30.18F WCI  15
GRAND RAPIDS   PTCLDY    23  13  65 S8        30.18F WCI  14
IONIA          FAIR      25  15  66 SW9       30.18F WCI  15
KALAMAZOO      CLEAR     25  15  66 S12       30.21F WCI  14
LUDINGTON      MOCLDY    31  23  73 S9        30.09F WCI  23
MARSHALL       CLEAR     22  13  68 S6        30.21F WCI  14
MOUNT PLEASANT CLEAR     20   8  60 S5        30.17S WCI  14
MUSKEGON       MOCLDY    29  19  66 S10       30.15F WCI  20
SOUTH HAVEN    PTCLDY    28  15  58 S10       30.19S WCI  19
$$
MIZ016>042-291200-
NORTHERN LOWER MICHIGAN

CITY           SKY/WX    TMP DP  RH WIND       PRES   REMARKS
ALPENA         PTCLDY    22   6  50 S6        30.12S WCI  14
BEAVER ISLAND  MOCLDY    27  22  80 S9        30.02F WCI  18
BELLAIRE       PTCLDY    27  10  49 CALM      30.08F
CADILLAC       PTCLDY    22   7  51 S9        30.06F WCI  12
CHARLEVOIX     MOCLDY    27  13  56 S9G17     30.07F WCI  18
FRANKFORT      MOCLDY    31  19  59 S8G16     30.06F WCI  24
GAYLORD        CLEAR     22   6  50 S13       30.04F WCI  10
GRAYLING       CLEAR     21   3  45 S3        30.08F
HARBOR SPRINGS PTCLDY    26  11  54 S6        30.05F WCI  19
HOUGHTON LAKE  PTCLDY    22   1  40 S9        30.10F WCI  12
MANISTEE       PTCLDY    25  16  68 SE3       30.08F
OSCODA         CLEAR     18  11  76 SW6       30.16S WCI   9
PELLSTON       PTCLDY    27  11  51 S8        30.05F WCI  19
ROGERS CITY    PTCLDY    24  11  56 S10       30.09F WCI  13
TRAVERSE CITY  MOCLDY    28  11  48 SW8       30.06F WCI  20
$$
MIZ007>008-015-291200-
EASTERN UPPER MICHIGAN

CITY           SKY/WX    TMP DP  RH WIND       PRES   REMARKS
KINROSS        PTCLDY    23  19  86 S6        30.02F WCI  16
MACKINAC ISLAN PTCLDY    25  12  59 S10G16    30.03F WCI  14
NEWBERRY       MOCLDY    25  24  96 S10       29.97F WCI  14
S. S. MARIE    MOCLDY    15   9  76 E3        30.02F
$$
MIZ004>006-011>014-085-291200-
CENTRAL UPPER MICHIGAN

CITY           SKY/WX    TMP DP  RH WIND       PRES   REMARKS
MANISTIQUE     CLOUDY    32  28  84 S13G21    29.98S WCI  22
ESCANABA       PTCLDY    30  19  64 SW16G23   29.96S WCI  19
MENOMINEE      MOCLDY    30  18  59 SW14      29.97S WCI  20
SAWYER-GWINN   MOCLDY    27  16  63 S13       29.87F WCI  16
$$
MIZ001>003-009>011-084-291200-
WESTERN UPPER MICHIGAN

CITY           SKY/WX    TMP DP  RH WIND       PRES   REMARKS
IRON MOUNTAIN  PTCLDY    29  14  53 S12       29.88F WCI  19
HOUGHTON       PTCLDY    32  15  49 S16G22    29.72F WCI  21
COPPER HARBOR    N/A     34  18  52 SW14G24   29.73F WCI  25
IRONWOOD       MOCLDY    34  16  47 S21G29    29.65F WCI  22
$$

ABBREVIATIONS USED IN REMARKS
   TC - TEMPERATURE IN CELSIUS
  WCI - WIND CHILL INDEX
   HX - HEAT INDEX
  VSB - VISIBILITY




USA.gov is the U.S. government's official web portal to all federal, state and local government web resources and services.